METEOR 2-11 DEB, 60008

Orbit data source: Space-Track

METEOR 2-11 DEB, 60008 is space debris in LEO originally from a launch on Thu, 05 Jul 1984 UTC launched from the Plesetsk Missile And Space Complex (PKMTR). Debris objects in space refer to the collection of defunct objects orbiting the Earth. Examples of debris include non-operational satellites, rocket bodies, and fragments generated from explosions, collisions, or faulty payload assembly.

Loading next visibility...
Identifier
60008, 1984-072AD
Orbit
LEO
Country
Flag of CISCIS
Related business
Manufacturer
Unknown
Mission
Spacecraft
Bus & Motor
Unknown
Mass
Unknown
Launch date (UTC)
1984-07-05 (42 years ago)
Launch vehicle
Unknown
Launch site
Plesetsk Missile And Space Complex (PKMTR)
Object type
Payload
Rocket body
Debris
Shape & HBR
Unknown shape, 0.1 m
Radar Cross Section
Small (<0.1 m²)

Expand to show TLE details & history
Last TLE update: 2 days ago

TLE from 2 days ago
0 METEOR 2-11 DEB
1 60008U 84072AD  26128.88609872  .00002865  00000-0  16543-2 0  9994
2 60008  82.5088 354.8183 0037509 330.2005  29.7032 14.08391282628643
Epoch: 2026-05-08T21:15Z
TLE epoch observation values (Epoch: 2026-05-08T21:15:58.929Z)
Latitude
Longitude
169.11131°
Altitude
844.239 km
Speed
7.443 km/s
True Right ascension
23h 39m 16s
True Declination
0° 00' 00"
Sunlit
Object was in daylight at epoch
Visualization orbit readout
Latitude
Unknown
Longitude
Unknown
Altitude
Unknown
Speed
Unknown
Apparent Right ascension
Unknown
Apparent Declination
Unknown
Sunlit
N/A
Visualization observer readout
Local Sidereal Time
01:38:53
Azimuth
Unknown
Elevation
Unknown
Doppler factor
Unknown
Orbital elements
Apogee altitude
889.159 km
Perigee altitude
834.845 km
Semi-major axis
7,240.139 km
Eccentricity
0.00375
Inclination
82.5088°
RAAN
354.8183°
Arg. of periapsis
330.2005°
True anomaly
29.91705°
Mean anomaly
29.7032°
Eccentric anomaly
29.81004°
Mean motion
3.52308 °/min
Orbital period
102.18 mins
BSTAR
0.0016543
Loading maneuver chart data...
Computing Atmospheric mass density...
Loading historical data...
Loading historical data...
Loading historical data...
Loading historical data...
Loading historical data...
Loading historical data...
Loading historical data...

Documentation

Showing up to 5 results
|